User: anonymous   Login
Location: Az?znagar
(16.8373°N, 80.5091°E)
Time: 17:16:21
(UTC+00:00)
Language:

deb Chang Zheng 4 - Orbit

View from above orbital plane
View from above orbital plane
View from above satellite
View from above satellite

Ground track
Ground track

The orbit data is extracted from the following two-line orbital elements,

1 20885U 90081AV  22279.07045432  .00000092  00000-0  10577-3 0  9992
2 20885  98.8763 312.2277 0068020  59.4429   8.7949 13.90370172622762
Epoch (UTC): 06 October 2022 01:41:27
Eccentricity: 0.0068020
inclination: 98.8763°
perigee height: 877 km
apogee height: 977 km
right ascension of ascending node: 312.2277°
argument of perigee: 59.4429°
revolutions per day: 13.90370172
mean anomaly at epoch: 8.7949°
orbit number at epoch: 62276

The dashed part of the orbit path shows where the satellite is in the earth's shadow,  

DLR